Tracking 21612 objects as of 19-Oct-2020
HD Live streaming from Space Station
objects crossing your sky now

SL-8 R/B


SL-8 R/B is no longer on orbit
SL-8 R/B is classified as:


NORAD ID: 12389
Int'l Code: 1981-033B
Perigee: N/A
Apogee: N/A
Inclination: N/A
Period: N/A
Semi major axis: N/A
RCS: N/A
Launch date: April 9, 1981
Source: Commonwealth of Independent States (former USSR) (CIS)
Launch site: PLESETSK MISSILE AND SPACE COMPLEX (PKMTR)
Decay date: 2015-07-12

Note: This is a ROCKET BODY
aabbcc
Your satellite tracking list
Your tracking list is empty




NASA's NSSDC Master Catalog

Two Line Element Set (TLE):
1 12389U 81033B   15192.92184244  .24045308 -12285-5  13476-3 0  9994
2 12389 082.8246 077.2321 0005162 254.4661 106.7109 16.55182833770380
Source of the keplerian elements: AFSPC